When you browse on this site, cookies collect data to enhance your experience and personalize the content and advertising you see.
Visit our Privacy Policy to learn more. By continuing to use the site, you agree to this use of cookies and data.
  • In Latvia
  • List of Countries
  • For 7 days
  • Water Temperature
  • Weather Map
  • Weather Widgets
  • user-avatar
    Login

    Hourly Weather Zamojsce

    Today, 19 September, Thursday

    Time Temperature Precipitation Wind Pressure Humidity
    00:00 +6°C° 0 mm 4 mps 748 mmHg 76%
    01:00 +6°C° 0 mm 4 mps 748 mmHg 77%
    02:00 +5°C° 0 mm 3 mps 748 mmHg 76%
    03:00 +5°C° 0 mm 3 mps 748 mmHg 79%
    04:00 +5°C° 0 mm 3 mps 748 mmHg 82%
    05:00 +5°C° 0 mm 3 mps 748 mmHg 86%
    06:00 +5°C° 0.1 mm 4 mps 748 mmHg 85%
    07:00 +6°C° 0.1 mm 4 mps 748 mmHg 84%
    08:00 +7°C° 0.1 mm 4 mps 749 mmHg 84%
    09:00 +8°C° 0 mm 5 mps 749 mmHg 75%
    10:00 +10°C° 0 mm 5 mps 749 mmHg 67%
    11:00 +12°C° 0 mm 5 mps 749 mmHg 59%
    12:00 +13°C° 0 mm 5 mps 749 mmHg 55%
    13:00 +14°C° 0 mm 5 mps 749 mmHg 52%
    14:00 +15°C° 0 mm 5 mps 748 mmHg 49%
    15:00 +14°C° 0 mm 5 mps 748 mmHg 51%
    16:00 +14°C° 0 mm 4 mps 748 mmHg 53%
    17:00 +13°C° 0 mm 4 mps 748 mmHg 55%
    18:00 +11°C° 0.1 mm 4 mps 749 mmHg 64%
    19:00 +10°C° 0.1 mm 3 mps 749 mmHg 72%
    20:00 +8°C° 0.1 mm 3 mps 749 mmHg 81%
    21:00 +7°C° 0.1 mm 3 mps 749 mmHg 83%
    22:00 +7°C° 0.1 mm 3 mps 749 mmHg 85%
    23:00 +7°C° 0.1 mm 3 mps 749 mmHg 88%

    Tomorrow, 20 September, Friday

    Time Temperature Precipitation Wind Pressure Humidity
    00:00 +5°C° 0.3 mm 3 mps 750 mmHg 89%
    01:00 +5°C° 0.3 mm 3 mps 750 mmHg 91%
    02:00 +5°C° 0.3 mm 4 mps 750 mmHg 93%
    03:00 +5°C° 0 mm 3 mps 750 mmHg 94%
    04:00 +4°C° 0 mm 3 mps 750 mmHg 94%
    05:00 +4°C° 0 mm 3 mps 750 mmHg 95%
    06:00 +4°C° 0 mm 3 mps 750 mmHg 93%
    07:00 +5°C° 0 mm 4 mps 750 mmHg 92%
    08:00 +5°C° 0 mm 4 mps 750 mmHg 90%
    09:00 +7°C° 0 mm 4 mps 751 mmHg 80%
    10:00 +9°C° 0 mm 5 mps 751 mmHg 71%
    11:00 +10°C° 0 mm 5 mps 751 mmHg 62%
    12:00 +12°C° 0.1 mm 5 mps 751 mmHg 58%
    13:00 +13°C° 0.1 mm 5 mps 751 mmHg 54%
    14:00 +13°C° 0.1 mm 5 mps 751 mmHg 49%
    15:00 +13°C° 0.1 mm 5 mps 751 mmHg 52%
    16:00 +13°C° 0.1 mm 4 mps 751 mmHg 54%
    17:00 +12°C° 0.1 mm 4 mps 751 mmHg 57%
    18:00 +11°C° 0 mm 3 mps 751 mmHg 63%
    19:00 +9°C° 0 mm 2 mps 751 mmHg 69%
    20:00 +8°C° 0 mm 2 mps 751 mmHg 75%
    21:00 +7°C° 0 mm 2 mps 751 mmHg 77%
    22:00 +7°C° 0 mm 2 mps 751 mmHg 78%
    23:00 +6°C° 0 mm 2 mps 752 mmHg 80%

    Day after tomorrow, 21 September, Saturday

    Time Temperature Precipitation Wind Pressure Humidity
    00:00 +6°C° 0 mm 2 mps 752 mmHg 81%
    01:00 +6°C° 0 mm 2 mps 752 mmHg 82%
    02:00 +5°C° 0 mm 2 mps 751 mmHg 83%
    03:00 +5°C° 0 mm 2 mps 751 mmHg 84%
    04:00 +5°C° 0 mm 2 mps 751 mmHg 84%
    05:00 +5°C° 0 mm 2 mps 751 mmHg 84%
    06:00 +6°C° 0 mm 2 mps 751 mmHg 80%
    07:00 +7°C° 0 mm 3 mps 751 mmHg 76%
    08:00 +8°C° 0 mm 3 mps 751 mmHg 71%
    09:00 +11°C° 0 mm 3 mps 751 mmHg 64%
    10:00 +13°C° 0 mm 4 mps 751 mmHg 58%
    11:00 +15°C° 0 mm 4 mps 751 mmHg 51%
    12:00 +15°C° 0 mm 4 mps 751 mmHg 49%
    13:00 +17°C° 0 mm 4 mps 750 mmHg 47%
    14:00 +18°C° 0 mm 4 mps 750 mmHg 45%
    15:00 +18°C° 0 mm 4 mps 750 mmHg 48%
    16:00 +17°C° 0 mm 3 mps 749 mmHg 50%
    17:00 +17°C° 0 mm 3 mps 749 mmHg 53%
    18:00 +14°C° 0 mm 3 mps 749 mmHg 57%
    19:00 +13°C° 0 mm 2 mps 749 mmHg 62%
    20:00 +12°C° 0 mm 2 mps 749 mmHg 66%
    21:00 +10°C° 0 mm 2 mps 749 mmHg 66%
    22:00 +10°C° 0 mm 2 mps 749 mmHg 66%
    23:00 +9°C° 0 mm 3 mps 749 mmHg 66%

    22 September, Sunday

    Time Temperature Precipitation Wind Pressure Humidity
    00:00 +9°C° 0 mm 3 mps 749 mmHg 65%
    01:00 +9°C° 0 mm 3 mps 749 mmHg 64%
    02:00 +9°C° 0 mm 3 mps 749 mmHg 63%
    03:00 +8°C° 0 mm 2 mps 748 mmHg 64%
    04:00 +8°C° 0 mm 2 mps 748 mmHg 65%
    05:00 +8°C° 0 mm 2 mps 748 mmHg 66%
    06:00 +9°C° 0 mm 2 mps 748 mmHg 64%
    07:00 +10°C° 0 mm 2 mps 748 mmHg 62%
    08:00 +12°C° 0 mm 1 mps 748 mmHg 60%
    09:00 +14°C° 0 mm 1 mps 748 mmHg 54%
    10:00 +16°C° 0 mm 1 mps 748 mmHg 48%
    11:00 +19°C° 0 mm 2 mps 748 mmHg 42%
    12:00 +21°C° 0 mm 1 mps 747 mmHg 40%
    13:00 +21°C° 0 mm 1 mps 747 mmHg 39%
    14:00 +22°C° 0 mm 1 mps 746 mmHg 37%
    15:00 +22°C° 0 mm 1 mps 746 mmHg 41%
    16:00 +22°C° 0 mm 1 mps 745 mmHg 45%
    17:00 +20°C° 0 mm 2 mps 745 mmHg 49%
    18:00 +18°C° 0 mm 2 mps 745 mmHg 53%
    19:00 +16°C° 0 mm 2 mps 745 mmHg 57%
    20:00 +14°C° 0 mm 2 mps 744 mmHg 61%
    21:00 +13°C° 0 mm 2 mps 744 mmHg 62%
    22:00 +13°C° 0 mm 2 mps 744 mmHg 63%
    23:00 +12°C° 0 mm 2 mps 744 mmHg 64%

    23 September, Monday

    Time Temperature Precipitation Wind Pressure Humidity
    00:00 +12°C° 0 mm 2 mps 744 mmHg 61%
    01:00 +12°C° 0 mm 3 mps 744 mmHg 59%
    02:00 +12°C° 0 mm 3 mps 743 mmHg 56%
    03:00 +12°C° 0.1 mm 3 mps 743 mmHg 60%
    04:00 +12°C° 0.1 mm 3 mps 743 mmHg 64%
    05:00 +13°C° 0.1 mm 3 mps 742 mmHg 68%
    06:00 +12°C° 0.1 mm 3 mps 742 mmHg 73%
    07:00 +12°C° 0.1 mm 3 mps 742 mmHg 79%
    08:00 +12°C° 0.1 mm 3 mps 741 mmHg 84%
    09:00 +13°C° 0.1 mm 3 mps 741 mmHg 83%
    10:00 +14°C° 0.1 mm 3 mps 741 mmHg 82%
    11:00 +14°C° 0.1 mm 3 mps 741 mmHg 82%
    12:00 +16°C° 0 mm 3 mps 741 mmHg 77%
    13:00 +17°C° 0 mm 3 mps 740 mmHg 73%
    14:00 +18°C° 0 mm 3 mps 740 mmHg 69%
    15:00 +18°C° 0 mm 3 mps 739 mmHg 69%
    16:00 +18°C° 0 mm 3 mps 739 mmHg 69%
    17:00 +18°C° 0 mm 3 mps 739 mmHg 70%
    18:00 +17°C° 0 mm 3 mps 739 mmHg 74%
    19:00 +16°C° 0 mm 3 mps 739 mmHg 78%
    20:00 +13°C° 0 mm 3 mps 739 mmHg 83%
    21:00 +13°C° 0 mm 3 mps 738 mmHg 82%
    22:00 +13°C° 0 mm 4 mps 738 mmHg 81%
    23:00 +13°C° 0 mm 4 mps 738 mmHg 80%

    24 September, Tuesday

    Time Temperature Precipitation Wind Pressure Humidity
    00:00 +13°C° 0 mm 4 mps 738 mmHg 78%
    01:00 +14°C° 0 mm 4 mps 738 mmHg 77%
    02:00 +14°C° 0 mm 4 mps 738 mmHg 76%
    03:00 +14°C° 0 mm 4 mps 738 mmHg 80%
    04:00 +13°C° 0 mm 4 mps 738 mmHg 84%
    05:00 +13°C° 0 mm 4 mps 738 mmHg 88%
    06:00 +13°C° 0.1 mm 4 mps 738 mmHg 89%
    07:00 +13°C° 0.1 mm 4 mps 738 mmHg 89%
    08:00 +13°C° 0.1 mm 4 mps 738 mmHg 90%
    09:00 +14°C° 0 mm 3 mps 738 mmHg 89%
    10:00 +14°C° 0 mm 3 mps 739 mmHg 89%
    11:00 +14°C° 0 mm 3 mps 739 mmHg 88%
    12:00 +14°C° 0 mm 3 mps 739 mmHg 86%
    13:00 +16°C° 0 mm 3 mps 739 mmHg 83%
    14:00 +16°C° 0 mm 3 mps 739 mmHg 81%
    15:00 +15°C° 0 mm 4 mps 739 mmHg 83%
    16:00 +15°C° 0 mm 4 mps 739 mmHg 84%
    17:00 +14°C° 0 mm 4 mps 739 mmHg 86%
    18:00 +14°C° 0 mm 4 mps 739 mmHg 87%
    19:00 +14°C° 0 mm 4 mps 739 mmHg 88%
    20:00 +14°C° 0 mm 4 mps 740 mmHg 89%
    21:00 +13°C° 0.1 mm 3 mps 740 mmHg 91%
    22:00 +13°C° 0.1 mm 3 mps 740 mmHg 92%
    23:00 +13°C° 0.1 mm 3 mps 740 mmHg 94%
    Show more